カタログに戻る

TANSEI 3 DEB

運用中UNKNOWN
NORAD 9843·DEBRIS·🇯🇵 Japan

打ち上げ Feb 19, 1977 から Uchinoura Space Center

Loading…

次のパス (今後24時間)

TLE

最新Source: Space-Track

元期: Sep 13, 2026, 08:55 UTC

1 09843U 77012C   26256.37193102  .00000058  00000-0  26601-3 0  9999
2 09843  65.7545  34.6404 1731287 243.0546  98.3424 10.74913803944094

AllMySatでTANSEI 3 DEBをリアルタイム追跡

Download on the App Store